[[{"header":{"parameterUnit":"m.s-1","parameterCategory":1,"la1":30.2991,"la2":30.254,"lo1":-89.0895,"lo2":-89.0444,"dy":0.0017,"dx":0.0017,"nx":28,"ny":28,"refTime":"2023-08-13T09:00:00:Z","depth":0,"parameterNumber":2,"parameterNumberName":"U-component_of_WINDS"},"data":[0,0,0,0,0,0,0,0,0,0,0,0,0,0,0,0,0,0,0,0,0,0,0,0,0,0,0,0,0,0,0,0,0,0,0,0,0,0,0,0,0,0,0,0,0,0,0,0,0,0,0,0,0,0,0,0,0,0,3.8991,3.8992,0,3.9045,3.9045,3.9046,3.8938,3.8935,3.8931,3.8928,3.8982,3.8987,3.8991,0,0,0,0,0,0,0,0,0,0,0,0,0,3.8795,3.8799,3.8991,3.8992,3.8992,3.9044,3.9045,3.9046,3.8939,3.8934,3.893,3.8926,3.8981,3.8986,3.8992,0,0,0,0,0,0,0,0,0,0,0,0,0,3.8868,3.8801,3.8991,3.8945,3.8942,3.9044,3.9045,3.9046,3.894,3.8934,3.8929,3.8924,3.8979,3.8986,3.8993,3.9142,0,0,3.9014,3.9017,0,0,0,0,0,0,0,0,3.8864,3.8875,3.8951,3.8949,3.8945,3.8979,3.8996,3.9078,3.8941,3.894,3.8928,3.8921,3.8985,3.8992,3.9013,3.9145,3.9147,3.9015,3.9019,3.9022,3.9024,0,0,0,0,0,0,0,3.8859,3.8872,3.9012,3.8952,3.8949,3.8922,3.8926,3.9011,3.8992,3.894,3.8932,3.894,3.8983,3.9007,3.9014,3.9148,3.9015,3.9021,3.9026,3.9028,3.9403,3.9409,0,0,0,0,0,0,3.886,3.8868,3.901,3.9014,3.889,3.8929,3.8934,3.8973,3.8991,3.8988,3.8945,3.8935,3.8997,3.9006,3.9015,3.919,3.9022,3.9029,3.9033,3.9398,3.9404,3.9411,0,0,0,0,0,0,3.8856,3.8873,3.9008,3.8939,3.8954,3.8938,3.8983,3.8977,3.9001,3.8994,3.899,3.8973,3.8993,3.9005,3.9111,3.9191,3.9032,3.9039,3.9391,3.94,3.9408,3.9542,0,0,0,0,0,0,3.8851,3.8873,3.893,3.8941,3.8958,3.9104,3.8988,3.8982,3.9014,3.9002,3.9019,3.9017,3.899,3.9101,3.9118,3.9198,3.9044,3.9384,3.9395,3.9405,3.9531,3.9554,3.9575,0,0,0,0,0,3.8844,3.8966,3.8933,3.8951,3.9029,3.9109,3.9119,3.9085,3.9021,3.9077,3.9073,3.9017,3.918,3.9113,3.9131,3.9214,3.9378,3.9392,3.9404,3.9521,3.955,3.9574,0,0,0,0,0,0,3.8964,3.8966,3.893,3.9059,3.9085,3.9091,3.9161,3.9117,3.9161,3.9148,3.9104,3.9109,3.9223,3.9229,3.9155,3.9359,3.9268,3.9285,3.935,3.9378,3.94,3.9395,3.905,0,0,0,0,0,3.9005,3.907,3.9069,3.9183,3.9197,3.9178,3.9211,3.9183,3.9207,3.9217,3.922,3.9246,3.9302,3.9341,3.9392,3.9531,3.9533,3.9597,3.9619,3.9637,3.9652,3.9725,3.9753,3.9453,3.9453,3.9452,0,0,3.9092,3.9101,3.9145,3.9207,3.9223,3.9291,3.9187,3.9263,3.9312,3.9229,3.9328,3.9332,3.9357,3.948,3.9534,3.9489,3.9735,3.9654,3.9668,3.9673,3.9741,3.9769,3.9794,3.9461,3.946,3.9458,0,0,3.9283,3.9298,3.9393,3.9412,3.9437,3.9423,3.9447,3.9459,3.9458,3.9557,3.9496,3.9553,3.9652,3.9673,3.9696,3.9895,3.9844,3.9913,4.0028,4.0099,4.0122,4.0143,4.0212,4.0238,3.9928,3.9929,3.9929,0,3.9387,3.9486,3.9448,3.9528,3.9557,3.9484,3.958,3.96,3.9642,3.9663,3.9612,3.9733,3.9745,3.9871,3.992,3.9941,3.9966,3.991,4.0122,4.0142,4.0161,4.0227,4.0253,3.9937,3.9936,3.9935,3.9934,0,3.9612,3.9682,3.9756,3.9798,3.9835,3.9923,3.9898,3.994,3.9909,3.99,4.0001,4.0013,4.0066,4.0094,4.0064,4.0215,4.0186,4.0129,4.0037,4.0198,4.0259,4.0284,3.9948,3.9945,3.9943,3.9941,0,0,3.9881,3.99,3.9928,3.9945,3.9968,4.0021,4.0105,4.0156,4.0193,4.0224,4.0292,4.0378,4.0325,4.0351,4.0323,4.0386,4.0541,4.0321,4.0321,4.036,4.0706,4.0748,4.0778,4.0508,4.0513,4.0516,4.0704,0,4.0069,4.0214,4.0182,4.0324,4.0387,4.0319,4.0392,4.0414,4.0408,4.046,4.0453,4.0514,4.044,4.0456,4.0515,4.051,4.0609,4.0496,4.057,4.0573,4.0565,4.081,4.0855,4.1031,4.0727,4.0731,4.0734,0,4.0309,4.0349,4.0498,4.0509,4.0534,4.0601,4.0644,4.0696,4.0718,4.0709,4.0739,4.0698,4.0781,4.0689,4.0801,4.0724,4.0753,4.0755,4.0761,4.0766,4.0663,4.082,4.1086,4.1112,4.0772,4.0769,4.0766,0,4.0488,4.0579,4.0679,4.0697,4.0713,4.0761,4.077,4.0788,4.082,4.0858,4.0878,4.0926,4.0952,4.0989,4.0962,4.0898,4.1079,4.0984,4.1073,4.1073,4.1113,4.1111,4.1386,4.1134,4.1134,4.1133,4.1133,0,4.0702,4.0795,4.076,4.0822,4.0924,4.0886,4.0988,4.0989,4.1005,4.1065,4.1009,4.1066,4.1027,4.1082,4.1061,4.1156,4.1169,4.1163,4.1156,4.1168,4.1168,4.1185,4.1172,4.114,4.1139,4.1137,4.1136,0,4.0919,4.09,4.1004,4.1011,4.1015,4.109,4.1095,4.1152,4.1141,4.1218,4.1234,4.1217,4.1278,4.1255,4.132,4.1306,4.1427,4.1405,4.1419,4.1413,4.1502,4.1494,4.1797,4.1835,4.156,4.1562,4.1565,0,4.1056,4.1127,4.1141,4.1177,4.119,4.1249,4.1281,4.1246,4.1282,4.1313,4.1366,4.1422,4.1464,4.1564,4.1558,4.1607,4.1584,4.1687,4.1591,4.16,4.1584,4.158,4.1586,4.1706,4.1709,4.1712,4.1714,0,4.1302,4.1288,4.1337,4.1383,4.1423,4.1458,4.1487,4.152,4.1486,4.1529,4.159,4.1624,4.1689,4.1745,4.1788,4.1796,4.175,4.1745,4.1767,4.1779,4.1784,4.1781,4.147,4.1738,4.1735,4.1733,4.1732,4.1731,4.1482,4.154,4.1559,4.1615,4.1634,4.1662,4.1715,4.1711,4.1762,4.1812,4.1788,4.1859,4.1879,4.1932,4.1947,4.2001,4.1961,4.1994,4.2002,4.2011,4.2022,4.1776,4.2009,4.2008,4.2008,4.2007,4.2006,0,4.1723,4.1731,4.1783,4.1826,4.187,4.1822,4.1852,4.1892,4.1955,4.1977,4.202,4.2089,4.2143,4.2141,4.219,4.2233,4.2213,4.2247,4.2243,4.2245,4.2056,4.203,4.2263,4.2263,4.2263,4.2263,4.2262,4.2262,4.1853,4.1949,4.1938,4.2042,4.2049,4.2118,4.2139,4.2165,4.2182,4.2262,4.2306,4.2304,4.2316,4.2366,4.2412,4.241,4.243,4.2472,4.2462,4.2284,4.2259,4.2235,4.2211,4.2477,4.2477,4.2647,4.2648,4.265]},{"header":{"parameterUnit":"m.s-1","parameterCategory":1,"la1":30.2991,"la2":30.254,"lo1":-89.0895,"lo2":-89.0444,"dy":0.0017,"dx":0.0017,"nx":28,"ny":28,"refTime":"2023-08-13T09:00:00:Z","depth":0,"parameterNumber":3,"parameterNumberName":"V-component_of_WINDS"},"data":[0,0,0,0,0,0,0,0,0,0,0,0,0,0,0,0,0,0,0,0,0,0,0,0,0,0,0,0,0,0,0,0,0,0,0,0,0,0,0,0,0,0,0,0,0,0,0,0,0,0,0,0,0,0,0,0,0,0,0.2441,0.2442,0,0.2508,0.2509,0.251,0.2543,0.2543,0.2543,0.2543,0.2612,0.2614,0.2616,0,0,0,0,0,0,0,0,0,0,0,0,0,0.2339,0.234,0.2441,0.2442,0.2442,0.2508,0.2509,0.251,0.2543,0.2543,0.2543,0.2543,0.2611,0.2613,0.2616,0,0,0,0,0,0,0,0,0,0,0,0,0,0.2392,0.2341,0.2441,0.2467,0.247,0.2508,0.2509,0.251,0.2543,0.2543,0.2543,0.2543,0.2611,0.2613,0.2616,0.2634,0,0,0.2625,0.2626,0,0,0,0,0,0,0,0,0.2389,0.2396,0.2462,0.2465,0.2468,0.2517,0.2499,0.2552,0.2543,0.2515,0.2543,0.2543,0.258,0.2586,0.2598,0.2637,0.264,0.2625,0.2626,0.2628,0.2628,0,0,0,0,0,0,0,0.2385,0.2393,0.2468,0.2463,0.2467,0.2475,0.2482,0.2509,0.2547,0.2517,0.252,0.2527,0.2582,0.2596,0.26,0.2641,0.2625,0.2627,0.2629,0.263,0.2696,0.2696,0,0,0,0,0,0,0.2378,0.239,0.2465,0.247,0.2428,0.2476,0.2485,0.2501,0.2547,0.2554,0.2527,0.2529,0.2591,0.2597,0.2603,0.2626,0.2628,0.263,0.2632,0.2696,0.2696,0.2696,0,0,0,0,0,0,0.2375,0.2384,0.2463,0.243,0.2441,0.2478,0.2497,0.2503,0.2516,0.2554,0.2561,0.2534,0.2591,0.2599,0.2625,0.2629,0.2632,0.2634,0.2696,0.2696,0.2696,0.2672,0,0,0,0,0,0,0.2372,0.2383,0.2391,0.243,0.2443,0.2485,0.2497,0.2504,0.2521,0.2523,0.2563,0.2569,0.2592,0.2621,0.2628,0.2633,0.2636,0.2696,0.2696,0.2696,0.2673,0.2671,0.267,0,0,0,0,0,0.2368,0.2381,0.2391,0.24,0.2453,0.2485,0.2492,0.2517,0.2521,0.2529,0.2553,0.2568,0.2627,0.2624,0.2632,0.2637,0.2696,0.2696,0.2696,0.2673,0.2672,0.267,0,0,0,0,0,0,0.2342,0.2387,0.2398,0.2424,0.245,0.249,0.2501,0.2515,0.254,0.2542,0.2572,0.2581,0.2604,0.2623,0.2619,0.2656,0.2663,0.2664,0.2643,0.2641,0.264,0.2635,0.2639,0,0,0,0,0,0.2338,0.2361,0.2399,0.2419,0.2431,0.2463,0.2478,0.2496,0.2524,0.2535,0.2561,0.2588,0.2612,0.2628,0.2653,0.2675,0.2684,0.2683,0.2682,0.268,0.2682,0.2694,0.2694,0.2697,0.2697,0.2697,0,0,0.2333,0.2361,0.2373,0.2414,0.2436,0.2458,0.2473,0.2496,0.2512,0.2539,0.2565,0.2585,0.2617,0.2641,0.2653,0.2658,0.2683,0.2681,0.2679,0.2681,0.2694,0.2694,0.2694,0.2697,0.2697,0.2697,0,0,0.2334,0.2357,0.2375,0.2397,0.243,0.2451,0.2455,0.2493,0.2507,0.2534,0.2554,0.2573,0.2615,0.2636,0.2653,0.2659,0.2674,0.2666,0.266,0.2672,0.2671,0.2671,0.2673,0.2673,0.2668,0.2667,0.2667,0,0.2323,0.2357,0.2383,0.2404,0.2422,0.2446,0.2464,0.2484,0.2523,0.2534,0.2539,0.259,0.2613,0.2643,0.2644,0.2657,0.2662,0.2663,0.2669,0.2669,0.267,0.2672,0.2672,0.2666,0.2666,0.2667,0.2667,0,0.2341,0.2364,0.2375,0.2412,0.243,0.245,0.2478,0.2494,0.2509,0.2529,0.2555,0.2583,0.2614,0.2622,0.2637,0.2653,0.2654,0.2663,0.2671,0.2668,0.267,0.2671,0.2665,0.2665,0.2665,0.2666,0,0,0.2328,0.2378,0.2382,0.2398,0.2436,0.2454,0.2474,0.2503,0.2515,0.2541,0.2558,0.2592,0.26,0.2618,0.2636,0.2646,0.2648,0.2654,0.2655,0.2652,0.2666,0.2659,0.266,0.2658,0.2658,0.2658,0.2663,0,0.2334,0.2372,0.2395,0.2423,0.2444,0.2467,0.2484,0.2509,0.2527,0.2548,0.2569,0.2592,0.2601,0.2612,0.2623,0.2646,0.2652,0.2646,0.2674,0.2674,0.2665,0.2661,0.2654,0.2658,0.2665,0.2665,0.2665,0,0.2347,0.2371,0.2401,0.2435,0.2445,0.246,0.2488,0.2507,0.2534,0.2547,0.2567,0.2584,0.2605,0.261,0.264,0.2635,0.2647,0.266,0.2661,0.2665,0.267,0.2665,0.266,0.266,0.2667,0.2667,0.2667,0,0.2334,0.2375,0.2398,0.2411,0.2451,0.2461,0.2478,0.2505,0.2521,0.2545,0.2555,0.2581,0.2595,0.2615,0.2639,0.264,0.2665,0.2672,0.2676,0.2675,0.2681,0.268,0.2678,0.2689,0.2689,0.2689,0.2689,0,0.2339,0.2356,0.2392,0.2406,0.2426,0.2452,0.247,0.2489,0.2513,0.253,0.2551,0.2567,0.2597,0.2617,0.2635,0.2656,0.2662,0.2673,0.2678,0.2671,0.267,0.268,0.2681,0.2689,0.2689,0.2689,0.2689,0,0.2328,0.2353,0.238,0.2415,0.2424,0.2436,0.2466,0.248,0.2499,0.2521,0.2528,0.2558,0.2582,0.2607,0.2639,0.2652,0.2671,0.2678,0.2662,0.2665,0.2667,0.2666,0.2671,0.2672,0.2682,0.2682,0.2682,0,0.233,0.2343,0.2379,0.2393,0.2409,0.243,0.2445,0.2471,0.2486,0.2517,0.2527,0.2552,0.2574,0.261,0.2635,0.2659,0.2667,0.2667,0.2671,0.2663,0.2666,0.2665,0.2666,0.2665,0.2665,0.2665,0.2665,0,0.2329,0.2341,0.2362,0.2388,0.2406,0.2427,0.2449,0.2459,0.2489,0.2504,0.2529,0.2545,0.2577,0.2602,0.2628,0.2645,0.266,0.2663,0.2665,0.2659,0.2649,0.2654,0.2659,0.2663,0.2663,0.2664,0.2664,0.2664,0.2325,0.2338,0.2365,0.2388,0.2407,0.2426,0.2441,0.2461,0.2482,0.251,0.2524,0.2548,0.2573,0.2611,0.2627,0.2645,0.265,0.2653,0.2654,0.2654,0.2652,0.2646,0.265,0.265,0.2651,0.2651,0.2651,0,0.2325,0.2343,0.2364,0.2394,0.2412,0.2423,0.2448,0.2462,0.2483,0.2505,0.2525,0.2552,0.2575,0.2601,0.2625,0.2635,0.2642,0.264,0.264,0.2643,0.2647,0.2643,0.2634,0.2634,0.2634,0.2634,0.2634,0.2634,0.2328,0.2349,0.2363,0.2394,0.2412,0.2435,0.2448,0.2466,0.2484,0.2513,0.2532,0.2549,0.2572,0.2598,0.2619,0.2626,0.2634,0.263,0.2639,0.2642,0.2643,0.2645,0.2641,0.2632,0.2632,0.2634,0.2634,0.2634]}]]